Theta_e
317 318 322 326 319 315 317 320 317 318 318 319 320 319 318 320 321 320 325 325 323 322 318 315 314 316 321 322 324 324 325 326 325 321 322 322 323 322 323 323 322 321 321 320 322 320 322 325 327
318 321 325 326 320 319 318 316 318 316 318 319 320 319 318 318 320 322 323 324 323 319 316 314 314 315 314 314 314 315 316 316 315 315 316 317 317 317 318 320 323 324 325 324 323 323 324 323 322
318 322 326 318 317 319 317 316 314 317 317 317 318 318 319 319 319 320 320 321 322 324 316 314 314 314 314 314 314 314 314 314 314 314 313 313 313 313 313 314 315 317 318 318 318 318 318 320 321
319 321 320 317 320 317 316 315 315 315 317 317 317 316 317 319 319 319 319 319 320 322 315 314 313 313 313 313 312 312 311 311 311 311 310 310 309 309 308 309 309 310 311 311 310 310 310 311 312
320 322 317 318 316 315 314 316 316 314 315 316 317 315 316 317 318 318 317 317 318 320 315 314 313 313 312 310 310 309 308 308 307 306 306 304 304 303 303 303 303 304 304 303 303 303 303 303 303
319 318 315 317 316 317 315 317 316 315 316 316 316 315 316 317 317 317 317 316 317 318 315 314 314 312 310 309 309 309 308 308 306 304 304 304 304 304 303 303 303 302 302 302 302 302 302 302 302
319 316 318 317 318 317 316 317 315 315 314 315 317 313 316 316 317 317 316 315 316 317 316 314 314 313 309 309 309 309 308 306 304 304 305 306 306 304 303 303 302 302 302 303 303 303 303 302 302
319 313 316 315 316 318 317 316 317 316 315 317 317 314 315 318 317 316 316 315 315 317 317 314 313 313 309 308 309 310 308 305 304 304 305 306 305 304 303 303 303 303 303 304 304 304 304 304 303
319 312 313 315 318 317 317 315 317 317 316 316 317 317 317 317 317 316 315 314 315 316 316 315 314 312 309 308 308 310 308 305 304 304 305 305 305 304 303 303 303 304 304 304 304 304 304 305 305
318 312 313 314 317 316 317 316 317 315 315 314 316 317 317 317 317 317 316 316 315 315 315 316 315 313 310 308 308 309 308 306 304 304 306 306 306 305 303 303 303 303 303 304 304 304 305 305 305
317 314 314 318 319 319 317 315 317 314 312 315 317 318 316 316 316 316 316 316 316 315 315 316 316 315 311 309 308 308 309 306 305 305 306 307 307 306 304 303 303 303 303 303 304 304 304 305 305
317 317 317 318 320 317 316 317 315 315 317 317 317 317 317 316 316 316 316 316 316 315 314 315 315 315 312 309 308 307 308 307 305 305 306 307 307 306 304 303 303 303 303 303 303 303 303 304 304
316 316 319 319 318 318 317 315 314 316 317 317 317 316 316 317 317 316 316 316 316 315 315 314 313 314 313 309 308 307 307 308 306 305 304 305 305 304 304 303 302 302 302 303 303 302 303 303 303
316 316 316 317 318 317 316 315 316 317 316 317 316 316 316 316 316 316 316 316 316 316 315 314 313 312 312 311 308 307 307 307 306 304 303 303 303 303 304 304 303 302 302 302 302 302 302 303 302
316 314 311 314 315 313 314 313 311 317 316 317 317 317 316 316 316 316 316 317 316 316 315 314 313 312 311 310 309 307 306 306 306 305 302 302 302 302 302 303 302 302 302 302 302 302 302 301 301
314 313 313 312 311 314 314 314 312 318 316 317 317 317 317 316 316 316 316 316 316 316 315 314 313 312 311 310 309 307 306 305 305 304 302 301 301 302 301 302 301 301 301 301 301 301 301 301 300
310 311 310 311 312 312 311 313 312 316 316 316 317 318 318 317 317 317 317 317 316 316 315 315 313 313 311 309 308 306 305 304 304 303 301 301 300 300 300 300 300 301 301 301 301 301 300 300 299
311 310 310 311 312 311 311 312 313 316 314 314 316 317 317 317 317 317 317 317 317 316 315 314 313 312 310 308 306 305 304 303 303 302 301 300 300 299 299 299 300 300 300 300 300 300 299 298 299
309 309 310 310 311 313 311 312 313 314 314 311 313 314 315 316 318 317 317 316 315 315 315 314 313 312 310 308 306 304 305 304 303 302 300 300 299 299 299 298 299 300 300 299 299 299 298 297 297
311 311 311 311 310 309 311 311 312 310 313 314 313 313 314 316 318 317 316 315 315 315 315 314 313 312 311 309 308 305 306 305 304 302 301 299 299 298 298 298 298 299 299 298 298 298 297 297 296
311 311 312 312 310 308 308 311 309 309 311 312 313 314 315 316 316 316 316 315 315 315 315 314 313 312 310 309 306 305 303 303 302 301 300 299 298 297 297 297 298 298 298 298 297 297 297 296 295
313 310 311 310 311 312 309 313 310 309 309 309 311 314 314 316 315 316 315 315 315 314 314 313 312 311 309 308 307 306 307 306 306 304 303 300 298 297 297 296 297 297 297 297 296 296 297 296 295
313 310 310 311 310 310 311 311 313 309 309 309 311 314 316 316 316 316 315 315 314 314 313 313 311 310 309 308 307 306 305 305 306 304 301 299 298 297 296 296 296 296 296 296 296 295 296 296 295
309 311 309 306 308 312 311 311 312 308 310 310 309 313 316 317 318 316 314 314 314 313 313 312 311 310 309 307 306 306 306 306 305 304 302 301 299 297 296 295 295 295 295 295 295 295 295 295 294
310 310 310 309 308 313 309 308 313 311 311 308 310 314 317 317 317 315 314 314 314 313 313 311 310 309 308 307 307 308 307 306 306 305 303 301 300 298 297 296 295 295 295 294 294 294 294 295 294
308 310 313 311 312 314 304 310 312 309 310 313 312 312 313 313 314 314 314 315 314 313 313 311 310 309 308 309 309 308 308 307 307 305 303 302 300 299 297 296 295 294 294 294 294 294 294 294 293
308 309 310 311 297 306 312 310 311 310 309 308 309 311 311 313 312 314 314 314 314 313 312 311 310 310 309 308 308 309 308 307 307 306 304 301 299 298 297 296 294 293 293 293 293 293 293 294 293
308 308 311 309 313 311 310 311 314 311 312 307 307 308 312 311 312 312 313 313 313 312 311 310 310 311 311 308 308 308 309 308 306 306 305 302 299 297 296 295 293 293 293 293 293 293 293 293 292
307 309 308 310 312 316 316 314 309 309 309 309 307 313 312 310 313 313 313 312 311 311 310 310 310 310 310 309 310 309 309 308 306 306 305 303 300 298 295 294 294 293 292 292 292 292 293 293 292
305 309 310 312 313 309 312 314 313 312 311 311 310 312 313 311 312 312 312 312 312 312 311 311 311 310 311 311 310 309 308 308 306 306 305 303 300 297 295 294 293 292 292 292 292 292 292 292 290
Wind_Speed
4 4 3 1 4 5 4 5 2 2 1 2 5 3 6 4 5 4 6 13 14 17 18 18 16 15 16 15 13 13 12 11 11 10 9 7 6 6 5 5 5 5 5 4 5 4 3 3 4
4 4 2 2 4 2 5 5 5 5 4 9 6 6 2 5 5 4 13 15 16 18 19 17 16 17 16 15 13 14 14 14 14 14 10 9 9 8 8 8 6 6 6 6 7 6 5 6 7
4 3 1 4 3 4 4 5 6 3 7 6 4 3 3 4 10 6 12 14 17 19 20 19 18 17 17 16 15 16 16 15 14 11 9 8 8 8 7 7 8 8 9 9 10 9 10 10 10
4 2 2 3 5 7 6 5 6 6 4 5 4 3 4 8 4 7 12 12 18 21 23 21 20 18 17 17 16 14 14 11 9 9 8 7 7 7 7 6 6 7 8 8 9 10 10 10 11
4 2 2 1 5 5 6 5 16 5 4 6 8 4 5 8 13 9 10 12 16 22 25 23 21 20 18 17 15 14 12 10 9 8 7 6 6 5 5 6 6 7 7 8 8 8 7 8 8
2 2 2 3 5 5 4 9 9 6 6 4 5 3 6 10 14 13 13 13 16 21 24 24 22 20 20 19 17 15 13 11 10 8 6 4 3 3 3 3 3 3 3 2 3 3 5 5 6
3 3 4 4 5 5 5 13 7 7 8 8 5 6 7 13 14 14 14 15 17 22 25 24 23 21 21 21 19 17 15 14 13 12 9 7 5 5 4 3 2 1 1 2 3 5 6 7 7
1 4 3 4 3 6 2 7 3 10 11 7 15 7 6 11 15 17 17 18 20 23 26 27 26 24 25 24 21 18 16 16 15 13 10 8 7 6 6 5 3 2 1 3 5 6 8 9 9
3 3 3 5 3 5 2 3 5 5 7 11 13 20 13 9 16 20 22 23 24 26 27 29 29 28 28 27 23 20 19 17 16 13 11 9 7 7 7 6 5 4 4 5 5 8 9 11 12
4 3 8 6 2 4 4 8 8 5 10 11 20 24 25 21 19 23 26 28 28 28 28 30 32 31 31 30 27 24 23 22 19 17 14 11 9 8 8 8 7 7 6 7 8 10 11 12 13
6 6 6 9 11 9 5 5 9 7 8 19 24 28 30 30 28 30 31 32 31 28 31 31 32 33 33 32 29 28 26 25 23 20 17 14 11 10 10 10 10 9 9 9 9 12 13 15 15
4 15 17 14 21 6 5 7 6 19 36 29 24 20 24 30 35 36 35 33 32 32 32 32 33 35 35 34 33 30 29 27 25 22 19 16 13 13 12 13 13 12 11 11 12 14 15 16 18
7 7 17 23 21 19 15 19 12 26 42 31 29 30 31 30 32 33 34 36 35 35 33 34 35 36 36 37 35 34 32 30 26 24 21 19 17 16 15 14 13 13 12 12 13 14 16 17 18
4 10 15 18 27 23 9 14 8 39 36 30 26 36 39 39 41 39 39 40 40 38 37 35 37 37 37 38 37 37 34 31 29 26 23 21 20 20 18 17 16 14 12 12 15 17 17 18 18
5 8 8 15 15 9 10 9 11 40 32 35 32 31 31 35 38 41 39 40 39 37 38 38 38 39 39 39 39 38 36 34 32 29 27 25 24 23 22 19 17 15 15 16 17 18 18 19 19
2 1 5 2 8 5 12 14 13 25 27 32 32 34 35 37 38 38 40 40 40 38 37 36 39 40 40 40 40 39 38 36 33 32 29 28 27 26 24 21 19 18 16 17 17 18 19 19 19
2 6 8 12 14 5 7 11 11 13 21 27 33 36 40 41 41 44 44 41 38 37 38 37 39 41 41 40 39 39 38 38 35 33 32 30 29 28 26 23 21 19 18 18 17 17 18 19 19
8 6 6 8 4 5 7 16 15 32 18 28 36 38 42 42 48 45 44 42 41 39 41 40 40 40 41 39 37 38 39 38 37 35 34 32 31 30 28 26 24 21 20 17 16 17 18 19 20
3 6 8 7 10 6 10 17 19 32 25 24 35 41 46 54 58 57 50 40 39 42 45 46 45 42 41 42 42 42 43 42 41 38 36 35 33 31 29 28 26 23 20 16 14 15 16 17 19
12 18 19 15 15 6 16 23 18 12 23 35 33 41 47 51 53 55 48 37 32 34 40 46 47 44 42 43 43 42 42 42 41 38 38 36 34 32 31 30 28 25 21 16 12 14 16 17 17
15 15 18 19 6 5 9 19 10 13 23 36 39 47 50 56 53 53 47 37 32 34 37 43 46 44 42 42 43 43 41 40 41 42 42 40 37 34 33 32 30 27 23 17 12 13 15 15 15
24 13 14 8 4 12 4 23 6 8 13 11 25 38 42 50 49 47 40 33 31 31 34 39 44 41 40 41 42 46 44 45 46 46 44 41 39 37 35 34 32 29 25 19 14 12 16 16 15
21 5 6 2 4 5 3 6 4 8 7 12 15 32 41 44 44 42 34 25 25 29 33 36 39 38 39 40 41 43 44 42 42 44 43 41 40 39 37 35 34 32 28 22 16 12 15 16 16
2 4 5 4 1 11 10 9 6 6 7 6 11 32 32 31 36 35 19 18 24 29 31 34 37 37 38 38 41 42 41 42 44 44 43 43 43 42 40 37 36 33 30 24 18 14 15 16 16
4 5 3 3 1 11 9 6 19 6 11 11 14 30 35 40 36 33 19 22 26 28 31 35 36 37 37 39 39 39 40 42 42 43 42 44 45 46 44 40 39 36 31 25 21 16 15 17 17
11 12 7 7 9 19 4 10 12 11 15 26 28 34 38 40 36 28 18 22 24 29 32 35 35 37 40 40 40 40 39 41 41 42 43 44 44 43 42 40 39 36 32 28 23 18 15 18 19
2 5 13 2 2 1 10 14 10 4 9 6 15 28 32 30 32 22 22 23 24 28 32 33 34 36 40 43 43 42 41 43 42 41 43 44 42 42 40 40 39 37 34 30 26 20 17 19 21
7 3 2 2 5 8 10 9 15 9 6 7 13 19 36 24 20 20 19 18 22 24 27 29 33 37 41 43 44 44 43 44 43 41 42 44 44 43 40 41 41 38 35 31 27 23 20 22 23
2 5 5 3 4 12 16 15 6 8 1 6 10 24 31 22 7 8 10 14 17 20 25 28 34 41 42 41 45 48 48 49 48 45 43 44 44 44 41 42 42 40 36 33 29 26 24 24 23
6 15 16 9 10 5 4 10 29 28 20 20 22 28 28 20 13 6 7 9 15 22 27 30 34 40 39 40 45 48 52 53 53 51 48 47 47 43 41 43 43 42 38 35 32 29 26 26 24
Wind_Direction
181 206 226 298 36 56 278 270 253 177 164 163 149 158 182 139 164 206 173 177 186 191 196 196 194 193 196 197 190 194 197 202 208 215 219 221 218 218 224 222 221 215 222 240 254 278 280 279 283
184 208 210 88 88 26 270 255 213 212 173 141 139 125 149 217 188 195 171 182 194 197 195 195 194 195 197 200 200 203 206 209 217 218 215 223 230 236 234 234 234 231 232 238 247 255 261 262 263
190 195 198 100 123 199 230 241 217 204 170 194 167 200 200 210 201 215 197 203 199 195 197 196 197 198 199 199 202 204 209 215 218 229 221 228 234 242 246 248 243 245 249 259 266 263 260 262 264
184 187 70 95 235 257 232 240 198 158 191 199 165 231 244 212 195 209 204 208 203 197 196 197 199 203 204 207 209 205 206 212 210 210 213 222 231 237 246 253 261 264 267 267 268 271 271 268 268
173 131 61 301 255 256 253 228 183 179 198 199 184 250 239 233 227 221 217 214 211 201 199 199 201 203 206 209 204 203 208 205 211 213 213 215 224 234 240 242 248 253 259 264 271 277 281 281 278
124 93 68 239 250 260 261 197 181 206 211 188 199 210 248 236 233 231 226 221 215 214 207 205 206 206 208 204 201 202 204 202 201 197 192 194 210 220 222 214 205 206 218 240 271 293 301 301 303
117 95 219 234 257 296 234 183 197 209 198 221 210 170 243 237 225 225 226 224 219 213 215 215 214 214 209 206 204 203 200 197 193 187 189 198 216 222 216 204 194 199 242 314 318 319 320 316 315
166 106 283 256 252 269 257 183 243 207 235 230 210 234 246 260 220 215 222 226 223 219 218 219 219 219 216 214 213 211 207 203 197 194 197 205 207 214 210 210 202 209 274 308 318 321 320 319 315
201 68 242 247 228 266 207 240 229 244 235 212 217 240 250 252 216 216 220 224 224 223 223 223 222 220 218 217 217 215 210 209 206 204 207 209 208 206 212 213 218 241 267 286 308 316 320 319 319
162 147 227 220 226 234 249 231 252 226 239 236 239 245 248 250 235 226 227 231 230 229 228 226 226 224 222 221 219 218 214 213 210 209 209 210 220 230 235 235 242 254 263 285 300 303 309 316 317
193 213 224 265 264 291 249 237 238 220 254 234 243 261 253 248 246 247 245 248 255 246 234 232 230 227 226 226 223 220 218 215 214 214 216 219 224 236 245 253 258 265 276 285 290 297 304 307 309
223 240 241 265 277 280 254 266 234 229 257 267 272 272 262 257 251 250 250 251 250 248 243 238 234 231 228 226 226 225 223 219 218 217 219 223 231 239 241 243 250 259 266 275 287 295 300 305 309
222 250 253 260 264 271 280 256 252 267 274 268 265 260 256 257 256 258 258 255 251 248 246 243 238 234 232 228 227 226 225 224 222 222 220 222 226 234 241 247 251 254 263 273 283 290 299 305 309
270 276 277 276 272 272 229 268 235 270 283 281 268 258 255 255 259 261 260 258 252 250 246 243 242 239 235 234 230 229 227 225 224 224 223 224 226 233 240 246 250 256 260 268 279 287 293 297 304
291 310 309 260 260 236 229 286 223 261 268 276 272 268 262 257 257 257 259 256 258 258 250 246 242 241 237 235 233 231 229 227 226 227 225 225 230 233 235 240 246 251 259 271 280 290 297 302 307
310 354 303 310 146 237 162 263 251 267 259 266 270 274 269 260 259 261 260 258 257 255 252 249 244 241 237 235 234 231 229 227 225 225 226 227 230 232 234 237 238 243 253 267 279 288 293 299 303
265 236 217 303 208 156 183 252 265 269 239 257 273 276 275 269 264 260 257 256 256 258 254 251 244 241 237 234 231 230 229 228 226 225 226 228 230 232 232 233 236 240 249 265 279 288 294 298 303
220 220 246 240 246 192 229 250 269 276 255 257 269 271 271 269 266 265 263 261 259 257 256 249 246 239 233 231 228 227 227 227 226 226 226 228 230 231 231 232 232 235 243 257 273 287 294 297 302
206 225 234 251 267 234 233 246 251 266 274 261 267 269 267 265 271 273 274 271 263 256 251 246 239 236 229 225 223 223 225 224 225 224 226 228 229 230 231 231 232 234 240 253 271 287 294 298 304
240 255 261 269 257 216 267 262 263 256 262 264 262 266 268 271 270 273 275 274 264 253 249 244 237 235 230 226 227 227 228 227 228 227 228 228 229 230 231 231 231 231 236 248 267 287 292 295 307
232 235 252 255 315 247 291 276 259 253 253 262 259 261 267 268 270 273 275 271 262 253 246 245 237 233 229 226 224 226 227 228 227 225 227 227 227 229 230 230 230 230 233 239 256 285 293 298 310
260 222 254 260 300 277 129 292 235 251 247 252 257 263 263 270 273 275 276 269 258 255 246 240 234 231 229 228 227 227 228 225 227 229 230 228 227 228 229 230 230 231 232 235 244 267 286 292 300
253 194 249 226 227 325 200 267 197 213 252 248 252 255 266 276 279 278 279 266 250 247 245 237 229 228 230 230 231 231 230 232 236 235 232 230 230 229 230 230 230 230 231 232 240 256 278 283 292
139 97 53 58 101 266 193 207 308 176 216 268 258 258 263 273 276 283 260 238 238 238 238 231 226 227 230 231 231 231 232 233 234 235 232 231 231 230 229 230 231 230 231 233 239 248 269 277 284
150 109 292 308 71 250 186 208 249 252 243 223 248 253 269 272 262 280 256 235 227 230 230 226 225 227 229 227 228 229 231 233 236 238 237 234 232 231 228 228 229 230 232 233 234 242 262 278 286
215 194 197 207 252 272 115 245 267 226 244 251 267 273 282 282 281 267 243 244 229 226 225 227 227 230 228 224 224 225 228 233 236 239 240 238 239 238 234 230 229 227 228 230 233 243 260 275 282
189 188 236 338 46 354 263 269 284 247 282 301 300 317 297 280 274 265 246 234 224 230 230 231 230 231 230 228 226 224 228 231 233 236 238 240 241 240 237 235 231 228 227 229 231 237 253 270 276
192 177 74 213 200 247 273 267 270 297 277 313 358 333 329 308 273 255 231 230 232 239 241 238 237 237 235 231 232 231 230 232 235 237 239 240 241 240 237 234 231 229 229 228 230 236 244 257 265
189 245 231 200 184 253 258 266 221 219 23 320 310 317 333 315 290 226 224 234 249 252 248 242 242 239 238 237 237 237 234 236 236 237 238 241 241 242 236 232 230 229 230 229 230 236 245 254 260
215 261 240 238 239 215 231 266 286 272 281 290 282 286 298 291 235 227 270 273 276 268 255 250 249 243 241 243 244 243 241 242 241 239 239 240 240 238 236 231 228 229 229 229 232 237 244 252 256